Погода в Кармацкой

Россия / Тюменская область     56°44′22″N   68°38′33″E
темп.,
°C
ветер,
м/с
пор.,
м/с
влажн.,
%
обл.,
%
осадки,
мм/ч
давл.,
гПа
погр.,
м
26 июля, пн
пн2623:00+12сз411860 0.0 1011211
02:00+10сз513700 0.0 1012287
05:00+8сз411770 0.0 1013226
08:00+14сз610620 0.0 1014586
11:00+17ссз894639 0.0 10141883
14:00+17сз6845100 0.0 10142079
17:00+16сз4757100 0.0 10141127
20:00+14з3665100 0.0 1014196
27 июля, вт
вт2723:00+13з3762100 0.0 1014178
02:00+13з3860100 0.0 1013196
05:00+13зюз3762100 0.0 1013196
08:00+14зюз476399 0.0 1013300
11:00+20з664335 0.0 10112228
14:00+20зюз674475 0.0 10102252
17:00+17ююз356329 0.1 1009128
20:00+15з3780100 0.4 1008211
28 июля, ср
ср2823:00+12зюз33915 0.4 100835
02:00+11юз3495100 0.0 100756
05:00+11зюз3797100 0.6 1007190
08:00+13юз359686 1.5 1006366
11:00+15зсз778471 2.6 1005841
14:00+17зсз9848100 0.2 10061898
17:00+16зсз7947100 0.2 10071907
20:00+10зсз510835 0.1 1009615
29 июля, чт
чт2923:00+7з37915 0.1 1010113
02:00+6з35903 0.0 101073
05:00+5зюз349170 0.0 101067
08:00+12юз576273 0.0 1010519
11:00+16з674797 0.0 10091596
14:00+18з694693 0.0 10081927
17:00+18зюз6105667 0.0 10071245
20:00+13юз3794100 1.3 1006198
30 июля, пт
пт3023:00+12ююз41094100 1.5 1005213
02:00+13зюз51294100 0.0 1005365
05:00+12юз239588 0.1 100562
08:00+16юз598999 0.6 1004528
11:00+19зюз797599 0.7 1004962
14:00+19з5780100 0.8 1004923
17:00+20з467179 1.1 1004954
20:00+17юз338320 0.4 100528